Tiempo cada hora Dacha

Hoy, 27 Noviembre, Viernes

Tiempo Temperatura Precipitaciones Viento Presión Humedad
00:00 -1°C° 0 mm 3 mps 746 mmHg 88%
01:00 -1°C° 0 mm 3 mps 746 mmHg 89%
02:00 -2°C° 0 mm 3 mps 746 mmHg 89%
03:00 -3°C° 0 mm 4 mps 746 mmHg 89%
04:00 -3°C° 0 mm 4 mps 745 mmHg 88%
05:00 -3°C° 0 mm 4 mps 745 mmHg 88%
06:00 -2°C° 0 mm 4 mps 745 mmHg 88%
07:00 -2°C° 0 mm 4 mps 744 mmHg 88%
08:00 -1°C° 0 mm 4 mps 744 mmHg 87%
09:00 -1°C° 0 mm 4 mps 744 mmHg 88%
10:00 0°C° 0 mm 5 mps 743 mmHg 89%
11:00 0°C° 0 mm 5 mps 743 mmHg 90%
12:00 +1°C° 0 mm 5 mps 743 mmHg 88%
13:00 +1°C° 0 mm 5 mps 743 mmHg 86%
14:00 +2°C° 0 mm 5 mps 743 mmHg 85%
15:00 +2°C° 0.2 mm 5 mps 743 mmHg 88%
16:00 +2°C° 0.2 mm 5 mps 743 mmHg 91%
17:00 +1°C° 0.2 mm 5 mps 743 mmHg 95%
18:00 +1°C° 0.1 mm 4 mps 743 mmHg 91%
19:00 0°C° 0.1 mm 4 mps 743 mmHg 87%
20:00 0°C° 0.1 mm 3 mps 743 mmHg 84%
21:00 0°C° 0 mm 3 mps 744 mmHg 86%
22:00 -1°C° 0 mm 3 mps 744 mmHg 89%
23:00 -1°C° 0 mm 2 mps 744 mmHg 92%

Mañana, 28 Noviembre, Sábado

Tiempo Temperatura Precipitaciones Viento Presión Humedad
00:00 -1°C° 0 mm 2 mps 745 mmHg 92%
01:00 -1°C° 0 mm 2 mps 745 mmHg 93%
02:00 -1°C° 0 mm 2 mps 746 mmHg 93%
03:00 -1°C° 0 mm 2 mps 746 mmHg 93%
04:00 +1°C° 0 mm 1 mps 746 mmHg 93%
05:00 +1°C° 0 mm 1 mps 746 mmHg 93%
06:00 +1°C° 0 mm 1 mps 746 mmHg 94%
07:00 +1°C° 0 mm 1 mps 747 mmHg 94%
08:00 +1°C° 0 mm 1 mps 747 mmHg 94%
09:00 +1°C° 0 mm 1 mps 748 mmHg 92%
10:00 +1°C° 0 mm 1 mps 748 mmHg 90%
11:00 +2°C° 0 mm 1 mps 748 mmHg 88%
12:00 +2°C° 0 mm 1 mps 748 mmHg 87%
13:00 +2°C° 0 mm 1 mps 749 mmHg 86%
14:00 +2°C° 0 mm 1 mps 749 mmHg 85%
15:00 +2°C° 0 mm 1 mps 749 mmHg 88%
16:00 +1°C° 0 mm 1 mps 749 mmHg 91%
17:00 +1°C° 0 mm 1 mps 749 mmHg 94%
18:00 -1°C° 0.1 mm 2 mps 750 mmHg 95%
19:00 -1°C° 0.1 mm 2 mps 750 mmHg 96%
20:00 +1°C° 0.1 mm 2 mps 750 mmHg 97%
21:00 +1°C° 0 mm 2 mps 751 mmHg 97%
22:00 +1°C° 0 mm 2 mps 751 mmHg 96%
23:00 -1°C° 0 mm 2 mps 751 mmHg 96%

Pasado mañana, 29 Noviembre, Domingo

Tiempo Temperatura Precipitaciones Viento Presión Humedad
00:00 -1°C° 0 mm 2 mps 751 mmHg 96%
01:00 -1°C° 0 mm 3 mps 751 mmHg 95%
02:00 -1°C° 0 mm 3 mps 751 mmHg 95%
03:00 -1°C° 0 mm 3 mps 751 mmHg 95%
04:00 0°C° 0 mm 3 mps 751 mmHg 95%
05:00 0°C° 0 mm 3 mps 750 mmHg 95%
06:00 -1°C° 0 mm 3 mps 750 mmHg 94%
07:00 -1°C° 0 mm 3 mps 750 mmHg 93%
08:00 -1°C° 0 mm 3 mps 750 mmHg 93%
09:00 -1°C° 0.4 mm 3 mps 750 mmHg 94%
10:00 -1°C° 0.4 mm 3 mps 749 mmHg 95%
11:00 -2°C° 0.4 mm 4 mps 749 mmHg 96%
12:00 -1°C° 1 mm 3 mps 748 mmHg 97%
13:00 -1°C° 1 mm 3 mps 748 mmHg 98%
14:00 -1°C° 1 mm 2 mps 747 mmHg 98%
15:00 +1°C° 0.5 mm 2 mps 747 mmHg 98%
16:00 +1°C° 0.5 mm 2 mps 747 mmHg 98%
17:00 +1°C° 0.5 mm 2 mps 747 mmHg 98%
18:00 +1°C° 0 mm 2 mps 748 mmHg 98%
19:00 +1°C° 0 mm 2 mps 748 mmHg 97%
20:00 0°C° 0 mm 3 mps 749 mmHg 97%
21:00 0°C° 0 mm 3 mps 749 mmHg 96%
22:00 0°C° 0 mm 3 mps 749 mmHg 96%
23:00 -1°C° 0 mm 3 mps 750 mmHg 95%

30 Noviembre, Lunes

Tiempo Temperatura Precipitaciones Viento Presión Humedad
00:00 -1°C° 0 mm 2 mps 750 mmHg 95%
01:00 -1°C° 0 mm 2 mps 751 mmHg 94%
02:00 -1°C° 0 mm 2 mps 751 mmHg 94%
03:00 -1°C° 0 mm 2 mps 751 mmHg 93%
04:00 -1°C° 0 mm 2 mps 752 mmHg 93%
05:00 -1°C° 0 mm 2 mps 752 mmHg 92%
06:00 -2°C° 0 mm 2 mps 752 mmHg 91%
07:00 -2°C° 0 mm 2 mps 753 mmHg 90%
08:00 -2°C° 0 mm 2 mps 753 mmHg 89%
09:00 -1°C° 0 mm 2 mps 753 mmHg 86%
10:00 -1°C° 0 mm 2 mps 754 mmHg 84%
11:00 0°C° 0 mm 3 mps 754 mmHg 82%
12:00 +1°C° 0 mm 2 mps 754 mmHg 82%
13:00 +1°C° 0 mm 2 mps 754 mmHg 82%
14:00 +1°C° 0 mm 2 mps 755 mmHg 82%
15:00 -1°C° 0 mm 2 mps 755 mmHg 85%
16:00 -2°C° 0 mm 2 mps 755 mmHg 87%
17:00 -3°C° 0 mm 2 mps 755 mmHg 90%
18:00 -3°C° 0 mm 2 mps 756 mmHg 91%
19:00 -3°C° 0 mm 2 mps 756 mmHg 92%
20:00 -3°C° 0 mm 2 mps 756 mmHg 93%
21:00 -3°C° 0 mm 2 mps 757 mmHg 93%
22:00 -4°C° 0 mm 2 mps 757 mmHg 92%
23:00 -4°C° 0 mm 2 mps 757 mmHg 92%

1 Diciembre, Martes

Tiempo Temperatura Precipitaciones Viento Presión Humedad
00:00 -4°C° 0 mm 2 mps 757 mmHg 92%
01:00 -4°C° 0 mm 2 mps 757 mmHg 92%
02:00 -4°C° 0 mm 2 mps 757 mmHg 92%
03:00 -4°C° 0 mm 2 mps 757 mmHg 93%
04:00 -2°C° 0 mm 1 mps 757 mmHg 93%
05:00 -2°C° 0 mm 1 mps 758 mmHg 93%
06:00 -2°C° 0 mm 1 mps 758 mmHg 93%
07:00 -2°C° 0 mm 1 mps 758 mmHg 93%
08:00 -2°C° 0 mm 1 mps 758 mmHg 93%
09:00 -1°C° 0 mm 1 mps 758 mmHg 90%
10:00 -1°C° 0 mm 1 mps 758 mmHg 86%
11:00 0°C° 0 mm 1 mps 758 mmHg 83%
12:00 0°C° 0 mm 1 mps 758 mmHg 82%
13:00 0°C° 0 mm 1 mps 757 mmHg 82%
14:00 +1°C° 0 mm 1 mps 757 mmHg 81%
15:00 0°C° 0 mm 1 mps 757 mmHg 84%
16:00 -1°C° 0 mm 1 mps 757 mmHg 87%
17:00 -2°C° 0 mm 1 mps 756 mmHg 90%
18:00 -2°C° 0 mm 1 mps 756 mmHg 90%
19:00 -2°C° 0 mm 1 mps 756 mmHg 90%
20:00 -2°C° 0 mm 1 mps 756 mmHg 90%
21:00 -2°C° 0 mm 1 mps 756 mmHg 90%
22:00 -2°C° 0 mm 1 mps 756 mmHg 89%
23:00 -2°C° 0 mm 1 mps 756 mmHg 89%

2 Diciembre, Miércoles

Tiempo Temperatura Precipitaciones Viento Presión Humedad
00:00 -3°C° 0 mm 0 mps 756 mmHg 88%
01:00 -3°C° 0 mm 0 mps 756 mmHg 87%
02:00 -3°C° 0 mm 0 mps 756 mmHg 86%
03:00 -2°C° 0 mm 1 mps 756 mmHg 87%
04:00 -2°C° 0 mm 1 mps 756 mmHg 87%
05:00 -1°C° 0 mm 1 mps 755 mmHg 88%
06:00 -1°C° 0.1 mm 1 mps 756 mmHg 90%
07:00 -1°C° 0.1 mm 1 mps 756 mmHg 92%
08:00 -1°C° 0.1 mm 1 mps 756 mmHg 94%
09:00 -2°C° 0 mm 2 mps 756 mmHg 93%
10:00 -2°C° 0 mm 2 mps 756 mmHg 93%
11:00 -1°C° 0 mm 2 mps 756 mmHg 92%
12:00 -1°C° 0 mm 2 mps 756 mmHg 90%
13:00 -1°C° 0 mm 2 mps 756 mmHg 88%
14:00 -1°C° 0 mm 2 mps 756 mmHg 87%
15:00 -2°C° 0 mm 2 mps 756 mmHg 88%
16:00 -3°C° 0 mm 2 mps 756 mmHg 90%
17:00 -3°C° 0 mm 2 mps 756 mmHg 92%
18:00 -3°C° 0 mm 2 mps 756 mmHg 92%
19:00 -4°C° 0 mm 2 mps 757 mmHg 92%
20:00 -4°C° 0 mm 2 mps 757 mmHg 92%
21:00 -4°C° 0 mm 2 mps 757 mmHg 93%
22:00 -4°C° 0 mm 2 mps 757 mmHg 94%
23:00 -4°C° 0 mm 2 mps 757 mmHg 95%
Mostrar más

Necesitamos Su Consentimiento

Meteoprog y nuestros Proveedores de Servicios pueden almacenar y acceder a sus datos personales como cookies, identificadores de dispositivo u otras tecnologías similares de su dispositivo y procesar dichos datos para personalizar contenido y anuncios, además de ofrecer funciones de redes sociales y analizar el tráfico.

  • Almacenar y/o acceder a información en su dispositivo

    Se puede almacenar o acceder a cookies, identificadores de dispositivo u otra información de su dispositivo para los fines anteriormente indicados.

  • Anuncios y contenido personalizados, medición de anuncios y contenido, percepciones del público, y desarrollo de productos

    Los anuncios y el contenido pueden personalizarse en base a su perfil. Se pueden añadir más datos para personalizar mejor los anuncios y contenidos. Se puede medir el rendimiento de los anuncios y contenidos. Se puede obtener la percepción sobre el público que ha visto los anuncios y contenidos. Dichos datos pueden usarse para desarrollar o mejorar la experiencia del usuario, sistemas y software.

Al hacer clic en ‘Estoy De Acuerdo’ usted permitirá el uso de las cookies, identificadores de dispositivo, balizas web u otras tecnologías similares indicadas. Su configuración puede cambiarse desde el navegador de su dispositivo.

Para ciertos fines, los intereses legítimos pueden ser considerados por encima del consentimiento. Puede leer más sobre ello en nuestra Política de Privacidad y Cookies.